{"data":{"norad_id":64358,"intl_designator":"2025-126Q","name":"STARLINK-34436","alt_names":[],"object_type":"PAYLOAD","status":"ACTIVE","operator":null,"country":"US","launch_date":"2025-06-13","launch_site_code":"AFWTR","launch_vehicle":null,"mission":null,"orbit_class":"UNKNOWN","rcs_meters":null,"size_class":null,"mass_kg":null,"dimensions":null,"purposes":["comms"],"wikipedia_slug":null,"has_3d_model":false,"image_url":null,"decayed_at":null,"tle_current":{"epoch":"2026-05-25T02:49:45.115392Z","epoch_age_seconds":64929,"freshness":"FRESH","line1":"1 64358U 25126Q   26145.11788328  .00001580  00000+0  14014-3 0  9994","line2":"2 64358  70.0006 201.6048 0003974 265.7341  94.3364 14.98334333 52134","mean_motion":14.98334333,"eccentricity":0.0003974,"inclination_deg":70.0006,"raan_deg":201.6048,"arg_perigee_deg":265.7341,"mean_anomaly_deg":94.3364,"bstar":0.00014014,"rev_number":5213,"period_min":96.106721195983,"perigee_km":569.2804902017,"apogee_km":574.80449286157,"semimajor_km":6950.1794915316,"source":"CELESTRAK","updated_at":"2026-05-25T13:38:20.404192Z"}}}